Location: Équennes
(49.7375°N, 1.9622°E)
Time: 23:36:43
(UTC+00:00)

Cosmos 1656 - Pass Details

Date: 06 October 2023
Orbit: 797 x 849 km, 71.1° (Epoch: 03 December)

Event Time Altitude Azimuth Distance (km) Brightness Sun altitude
Rises 19:56:03 0° 335° (NNW) 3,317 7.5 -25.4°
Reaches altitude 10° 19:59:14 10° 353° (N) 2,388 6.4 -25.9°
Enters shadow 20:02:37 18° 32° (NNE) 1,873 5.4 -26.4°
